BAW15 WSSS-YSSY

Flight info

Callsign BAW15
Flight time 6h 54m
Altitude 35000
Route IDBUD1A IDBUD T24 SURGA M635 ATMAP/N0486F370 A576 KALUG/N0478F390 A576 APOMA Y52 VELGI Y105 TARAL Y59 RIVET
Aircraft B77W/H-SDE1E3FGHIJ3J4J5J6M1M2P2RWXYZ/LB1D1

Departure

Time 2026-04-24 07:42
Airport Singapore Changi Airport (WSSS)

Arrival

Time 2026-04-24 14:37
Airport Sydney Kingsford Smith International Airport (YSSY)
Time Latitude Longitude Altitude Speed Heading
2026-04-24 07:01 1.36442 103.99282 37 ft 0 kts 143°
2026-04-24 07:25 1.36451 103.99274 37 ft 4 kts 143°
2026-04-24 07:25 1.36471 103.99259 36 ft 2 kts 142°
2026-04-24 07:26 1.36487 103.99246 35 ft 4 kts 117°
2026-04-24 07:26 1.36492 103.99231 34 ft 4 kts 73°
2026-04-24 07:26 1.36480 103.99210 33 ft 4 kts 53°
2026-04-24 07:26 1.36475 103.99203 33 ft 0 kts 53°
2026-04-24 07:31 1.36477 103.99206 33 ft 3 kts 53°
2026-04-24 07:31 1.36508 103.99246 36 ft 8 kts 52°
2026-04-24 07:31 1.36543 103.99292 37 ft 8 kts 52°
2026-04-24 07:32 1.36575 103.99346 37 ft 11 kts 74°
2026-04-24 07:32 1.36554 103.99441 37 ft 16 kts 112°
2026-04-24 07:32 1.36510 103.99543 37 ft 16 kts 113°
2026-04-24 07:32 1.36467 103.99645 37 ft 16 kts 113°
2026-04-24 07:33 1.36420 103.99744 37 ft 16 kts 128°
2026-04-24 07:33 1.36318 103.99746 37 ft 16 kts 201°
2026-04-24 07:33 1.36215 103.99703 37 ft 16 kts 202°
2026-04-24 07:33 1.36112 103.99661 37 ft 16 kts 202°
2026-04-24 07:34 1.36009 103.99618 37 ft 16 kts 202°
2026-04-24 07:34 1.35905 103.99576 37 ft 16 kts 201°
2026-04-24 07:34 1.35804 103.99530 37 ft 16 kts 205°
2026-04-24 07:34 1.35701 103.99488 37 ft 16 kts 202°
2026-04-24 07:35 1.35598 103.99446 38 ft 16 kts 202°
2026-04-24 07:35 1.35495 103.99403 38 ft 16 kts 202°
2026-04-24 07:35 1.35393 103.99359 37 ft 16 kts 203°
2026-04-24 07:35 1.35291 103.99316 37 ft 16 kts 202°
2026-04-24 07:36 1.35190 103.99274 36 ft 16 kts 202°
2026-04-24 07:36 1.35087 103.99231 37 ft 16 kts 202°
2026-04-24 07:36 1.34984 103.99189 37 ft 16 kts 202°
2026-04-24 07:36 1.34882 103.99145 37 ft 16 kts 203°
2026-04-24 07:37 1.34780 103.99102 37 ft 16 kts 202°
2026-04-24 07:37 1.34677 103.99059 38 ft 16 kts 202°
2026-04-24 07:37 1.34575 103.99017 38 ft 16 kts 202°
2026-04-24 07:37 1.34472 103.98974 38 ft 16 kts 202°
2026-04-24 07:38 1.34370 103.98931 38 ft 16 kts 202°
2026-04-24 07:38 1.34268 103.98888 38 ft 16 kts 202°
2026-04-24 07:38 1.34165 103.98845 38 ft 16 kts 202°
2026-04-24 07:38 1.34063 103.98802 38 ft 16 kts 202°
2026-04-24 07:39 1.33962 103.98760 38 ft 16 kts 203°
2026-04-24 07:39 1.33859 103.98716 37 ft 16 kts 203°
2026-04-24 07:39 1.33757 103.98673 37 ft 16 kts 202°
2026-04-24 07:39 1.33655 103.98631 37 ft 16 kts 202°
2026-04-24 07:40 1.33548 103.98587 37 ft 19 kts 202°
2026-04-24 07:40 1.33420 103.98534 37 ft 21 kts 202°
2026-04-24 07:40 1.33279 103.98475 37 ft 23 kts 202°
2026-04-24 07:40 1.33127 103.98412 38 ft 24 kts 201°
2026-04-24 07:41 1.32980 103.98365 37 ft 20 kts 166°
2026-04-24 07:41 1.32915 103.98482 37 ft 16 kts 95°
2026-04-24 07:41 1.32978 103.98540 38 ft 14 kts 22°
2026-04-24 07:41 1.33188 103.98631 37 ft 66 kts 22°
2026-04-24 07:42 1.33836 103.98906 37 ft 134 kts 22°
2026-04-24 07:42 1.34872 103.99341 65 ft 183 kts 25°
2026-04-24 07:42 1.36032 103.99827 781 ft 173 kts 25°
2026-04-24 07:42 1.37161 104.00161 1530 ft 178 kts 25°
2026-04-24 07:43 1.38339 104.00684 2241 ft 186 kts 39°
2026-04-24 07:43 1.39400 104.01359 3184 ft 180 kts 33°
2026-04-24 07:43 1.40350 104.02230 3393 ft 203 kts 63°
2026-04-24 07:43 1.40680 104.03698 3427 ft 232 kts 86°
2026-04-24 07:44 1.41050 104.05348 3265 ft 250 kts 71°
2026-04-24 07:44 1.41282 104.07033 3219 ft 249 kts 102°
2026-04-24 07:44 1.40412 104.08518 3664 ft 257 kts 141°
2026-04-24 07:44 1.38795 104.09300 4245 ft 263 kts 160°
2026-04-24 07:45 1.37059 104.09967 4828 ft 271 kts 156°
2026-04-24 07:45 1.35346 104.10736 5494 ft 276 kts 154°
2026-04-24 07:45 1.33622 104.11588 6265 ft 277 kts 152°
2026-04-24 07:45 1.31908 104.12493 6964 ft 280 kts 150°
2026-04-24 07:46 1.30201 104.13438 7686 ft 281 kts 150°
2026-04-24 07:46 1.28499 104.14412 8364 ft 284 kts 149°
2026-04-24 07:46 1.26789 104.15413 9089 ft 284 kts 148°
2026-04-24 07:46 1.25080 104.16429 9734 ft 289 kts 148°
2026-04-24 07:47 1.23349 104.17470 10338 ft 293 kts 148°
2026-04-24 07:47 1.21553 104.18559 10598 ft 314 kts 148°
2026-04-24 07:47 1.19612 104.19741 10782 ft 336 kts 148°
2026-04-24 07:47 1.17548 104.21004 10932 ft 360 kts 148°
2026-04-24 07:48 1.15363 104.22342 11332 ft 374 kts 148°
2026-04-24 07:48 1.13125 104.23714 12010 ft 381 kts 147°
2026-04-24 07:48 1.10886 104.25088 12738 ft 386 kts 148°
2026-04-24 07:48 1.08577 104.26505 13444 ft 392 kts 147°
2026-04-24 07:49 1.06235 104.27945 14086 ft 398 kts 147°
2026-04-24 07:49 1.03859 104.29405 14762 ft 402 kts 147°
2026-04-24 07:49 1.01465 104.30876 15439 ft 406 kts 147°
2026-04-24 07:49 0.99050 104.32359 16101 ft 410 kts 147°
2026-04-24 07:50 0.96605 104.33861 16738 ft 414 kts 147°
2026-04-24 07:50 0.94137 104.35378 17361 ft 418 kts 147°
2026-04-24 07:50 0.91641 104.36912 17977 ft 423 kts 147°
2026-04-24 07:50 0.89123 104.38458 18509 ft 427 kts 147°
2026-04-24 07:51 0.86616 104.39999 19064 ft 429 kts 147°
2026-04-24 07:51 0.84068 104.41565 19629 ft 432 kts 148°
2026-04-24 07:51 0.81490 104.43148 20153 ft 436 kts 148°
2026-04-24 07:51 0.78898 104.44740 20676 ft 439 kts 148°
2026-04-24 07:52 0.76282 104.46348 21187 ft 443 kts 148°
2026-04-24 07:52 0.73644 104.47969 21690 ft 446 kts 148°
2026-04-24 07:52 0.70989 104.49600 22186 ft 450 kts 148°
2026-04-24 07:52 0.68315 104.51243 22693 ft 453 kts 148°
2026-04-24 07:53 0.65621 104.52898 23172 ft 456 kts 148°
2026-04-24 07:53 0.62900 104.54569 23603 ft 459 kts 148°
2026-04-24 07:53 0.60172 104.56246 24002 ft 462 kts 148°
2026-04-24 07:53 0.57425 104.57934 24397 ft 465 kts 148°
2026-04-24 07:54 0.54664 104.59630 24799 ft 467 kts 148°
2026-04-24 07:54 0.51885 104.61337 25200 ft 469 kts 148°
2026-04-24 07:54 0.49217 104.63216 25555 ft 472 kts 139°
2026-04-24 07:54 0.46855 104.65502 25906 ft 474 kts 131°
2026-04-24 07:55 0.44788 104.68079 26294 ft 476 kts 124°
2026-04-24 07:55 0.43091 104.70880 26650 ft 478 kts 120°
2026-04-24 07:55 0.41453 104.73784 26999 ft 480 kts 119°
2026-04-24 07:55 0.39816 104.76710 27342 ft 483 kts 119°
2026-04-24 07:56 0.38158 104.79647 27675 ft 486 kts 120°
2026-04-24 07:56 0.36481 104.82588 28002 ft 488 kts 120°
2026-04-24 07:56 0.34783 104.85538 28330 ft 491 kts 120°
2026-04-24 07:56 0.33652 104.87496 28521 ft 492 kts 120°
2026-04-24 07:57 0.31931 104.90468 28815 ft 494 kts 120°
2026-04-24 07:57 0.30207 104.93445 29103 ft 496 kts 120°
2026-04-24 07:57 0.28478 104.96434 29409 ft 498 kts 120°
2026-04-24 07:57 0.26741 104.99438 29748 ft 498 kts 120°
2026-04-24 07:58 0.25007 105.02438 30131 ft 497 kts 120°
2026-04-24 07:58 0.23281 105.05423 30514 ft 495 kts 120°
2026-04-24 07:58 0.21561 105.08397 30882 ft 494 kts 120°
2026-04-24 07:58 0.19837 105.11374 31238 ft 493 kts 120°
2026-04-24 07:59 0.18148 105.14294 31594 ft 492 kts 120°
2026-04-24 07:59 0.16433 105.17259 31964 ft 491 kts 120°
2026-04-24 07:59 0.14725 105.20210 32331 ft 490 kts 120°
2026-04-24 07:59 0.13019 105.23161 32703 ft 489 kts 120°
2026-04-24 08:00 0.11315 105.26107 33071 ft 488 kts 120°
2026-04-24 08:00 0.09621 105.29036 33437 ft 487 kts 120°
2026-04-24 08:00 0.07929 105.31961 33797 ft 485 kts 120°
2026-04-24 08:00 0.06242 105.34879 34106 ft 485 kts 120°
2026-04-24 08:01 0.04553 105.37799 34389 ft 484 kts 120°
2026-04-24 08:01 0.02868 105.40711 34649 ft 484 kts 120°
2026-04-24 08:01 -0.00519 105.46569 34787 ft 488 kts 120°
2026-04-24 08:02 -0.03903 105.52419 34799 ft 483 kts 120°
2026-04-24 08:02 -0.07255 105.58216 34806 ft 481 kts 120°
2026-04-24 08:03 -0.10594 105.63989 34809 ft 479 kts 120°
2026-04-24 08:03 -0.13908 105.69720 34810 ft 480 kts 120°
2026-04-24 08:04 -0.17252 105.75500 34809 ft 480 kts 120°
2026-04-24 08:04 -0.20595 105.81281 34815 ft 481 kts 120°
2026-04-24 08:05 -0.23951 105.87085 34813 ft 483 kts 120°
2026-04-24 08:05 -0.27313 105.92897 34810 ft 484 kts 120°
2026-04-24 08:06 -0.30682 105.98723 34808 ft 484 kts 120°
2026-04-24 08:06 -0.34054 106.04554 34808 ft 484 kts 120°
2026-04-24 08:07 -0.37425 106.10383 34804 ft 484 kts 120°
2026-04-24 08:07 -0.40771 106.16171 34804 ft 484 kts 120°
2026-04-24 08:08 -0.44141 106.21999 34801 ft 484 kts 120°
2026-04-24 08:09 -0.49188 106.30727 34805 ft 483 kts 119°
2026-04-24 08:09 -0.52550 106.36542 34807 ft 483 kts 119°
2026-04-24 08:10 -0.55914 106.42362 34806 ft 483 kts 119°
2026-04-24 08:10 -0.59276 106.48178 34809 ft 483 kts 119°
2026-04-24 08:11 -0.62946 106.53801 34810 ft 484 kts 128°
2026-04-24 08:11 -0.67400 106.58846 34816 ft 484 kts 131°
2026-04-24 08:12 -0.71913 106.63840 34802 ft 484 kts 131°
2026-04-24 08:12 -0.76397 106.68851 34805 ft 484 kts 131°
2026-04-24 08:13 -0.80861 106.73874 34812 ft 484 kts 131°
2026-04-24 08:13 -0.85297 106.78874 34803 ft 483 kts 131°
2026-04-24 08:14 -0.89759 106.83902 34807 ft 483 kts 131°
2026-04-24 08:14 -0.94224 106.88930 34805 ft 483 kts 131°
2026-04-24 08:15 -0.98697 106.93945 34802 ft 483 kts 131°
2026-04-24 08:15 -1.03162 106.98968 34808 ft 484 kts 131°
2026-04-24 08:16 -1.07616 107.04002 34805 ft 484 kts 130°
2026-04-24 08:16 -1.12078 107.09047 34806 ft 484 kts 131°
2026-04-24 08:17 -1.16553 107.14088 34802 ft 485 kts 131°
2026-04-24 08:17 -1.21026 107.19123 34805 ft 485 kts 131°
2026-04-24 08:18 -1.25477 107.24136 34803 ft 485 kts 131°
2026-04-24 08:18 -1.29959 107.29188 34804 ft 485 kts 131°
2026-04-24 08:19 -1.34438 107.34236 34803 ft 485 kts 131°
2026-04-24 08:19 -1.38902 107.39292 34800 ft 485 kts 130°
2026-04-24 08:20 -1.43308 107.44405 34799 ft 485 kts 130°
2026-04-24 08:20 -1.47703 107.49527 34803 ft 485 kts 130°
2026-04-24 08:21 -1.52110 107.54651 34803 ft 486 kts 130°
2026-04-24 08:21 -1.56515 107.59761 34803 ft 486 kts 130°
2026-04-24 08:22 -1.60927 107.64878 34804 ft 486 kts 130°
2026-04-24 08:22 -1.65341 107.69999 34803 ft 486 kts 130°
2026-04-24 08:23 -1.69759 107.75125 34803 ft 486 kts 130°
2026-04-24 08:23 -1.74177 107.80252 34802 ft 487 kts 130°
2026-04-24 08:24 -1.78595 107.85379 34799 ft 487 kts 130°
2026-04-24 08:24 -1.82997 107.90487 34804 ft 487 kts 130°
2026-04-24 08:25 -1.87414 107.95615 34802 ft 487 kts 130°
2026-04-24 08:25 -1.91835 108.00746 34800 ft 487 kts 130°
2026-04-24 08:26 -1.96259 108.05882 34799 ft 487 kts 130°
2026-04-24 08:26 -2.00684 108.11021 34800 ft 488 kts 130°
2026-04-24 08:27 -2.05115 108.16166 34800 ft 488 kts 130°
2026-04-24 08:27 -2.09540 108.21295 34801 ft 487 kts 130°
2026-04-24 08:28 -2.13970 108.26423 34797 ft 487 kts 130°
2026-04-24 08:28 -2.18393 108.31546 34797 ft 486 kts 130°
2026-04-24 08:29 -2.22794 108.36647 34809 ft 491 kts 130°
2026-04-24 08:29 -2.27301 108.41871 34807 ft 501 kts 130°
2026-04-24 08:30 -2.31897 108.47199 34806 ft 509 kts 130°
2026-04-24 08:30 -2.36544 108.52586 34796 ft 512 kts 130°
2026-04-24 08:31 -2.41200 108.57983 34797 ft 512 kts 129°
2026-04-24 08:31 -2.45845 108.63371 34790 ft 511 kts 130°
2026-04-24 08:32 -2.50485 108.68748 34794 ft 509 kts 130°
2026-04-24 08:32 -2.55109 108.74086 34795 ft 507 kts 130°
2026-04-24 08:33 -2.59719 108.79406 34792 ft 505 kts 130°
2026-04-24 08:33 -2.64286 108.84681 34791 ft 504 kts 130°
2026-04-24 08:34 -2.68871 108.89979 34795 ft 503 kts 130°
2026-04-24 08:34 -2.73457 108.95280 34796 ft 504 kts 130°
2026-04-24 08:35 -2.78047 109.00586 34794 ft 504 kts 130°
2026-04-24 08:35 -2.82646 109.05904 34790 ft 505 kts 130°
2026-04-24 08:36 -2.87249 109.11226 34787 ft 506 kts 130°
2026-04-24 08:36 -2.91857 109.16560 34783 ft 506 kts 129°
2026-04-24 08:37 -2.96456 109.21904 34791 ft 507 kts 129°
2026-04-24 08:37 -3.01052 109.27250 34793 ft 507 kts 129°
2026-04-24 08:38 -3.05626 109.32571 34792 ft 507 kts 129°
2026-04-24 08:38 -3.10234 109.37930 34791 ft 508 kts 129°
2026-04-24 08:39 -3.14844 109.43292 34789 ft 508 kts 129°
2026-04-24 08:39 -3.19448 109.48648 34793 ft 507 kts 130°
2026-04-24 08:40 -3.24056 109.54009 34792 ft 507 kts 130°
2026-04-24 08:40 -3.28658 109.59364 34792 ft 508 kts 130°
2026-04-24 08:41 -3.33267 109.64728 34792 ft 508 kts 130°
2026-04-24 08:41 -3.37870 109.70086 34791 ft 508 kts 130°
2026-04-24 08:42 -3.42470 109.75441 34794 ft 508 kts 130°
2026-04-24 08:42 -3.47062 109.80787 34791 ft 508 kts 130°
2026-04-24 08:43 -3.51674 109.86158 34795 ft 509 kts 130°
2026-04-24 08:43 -3.56290 109.91535 34792 ft 509 kts 130°
2026-04-24 08:44 -3.60125 109.96002 34791 ft 508 kts 130°
2026-04-24 08:44 -3.64729 110.01367 34791 ft 508 kts 130°
2026-04-24 08:45 -3.70081 110.07604 34790 ft 508 kts 130°
2026-04-24 08:45 -3.74688 110.12975 34792 ft 507 kts 130°
2026-04-24 08:46 -3.78514 110.17435 34792 ft 507 kts 130°
2026-04-24 08:46 -3.83114 110.22798 34792 ft 507 kts 130°
2026-04-24 08:47 -3.87708 110.28157 34790 ft 507 kts 130°
2026-04-24 08:47 -3.92307 110.33522 34792 ft 507 kts 130°
2026-04-24 08:48 -3.96898 110.38881 34796 ft 507 kts 129°
2026-04-24 08:48 -4.01282 110.44410 34795 ft 507 kts 127°
2026-04-24 08:49 -4.05535 110.50044 34797 ft 507 kts 126°
2026-04-24 08:49 -4.09814 110.55669 34796 ft 507 kts 127°
2026-04-24 08:50 -4.14125 110.61270 34797 ft 508 kts 127°
2026-04-24 08:50 -4.18448 110.66867 34794 ft 508 kts 127°
2026-04-24 08:51 -4.22768 110.72463 34792 ft 508 kts 127°
2026-04-24 08:51 -4.27095 110.78073 34796 ft 508 kts 127°
2026-04-24 08:52 -4.31422 110.83686 34797 ft 508 kts 127°
2026-04-24 08:52 -4.35712 110.89252 34799 ft 508 kts 127°
2026-04-24 08:53 -4.40034 110.94861 34798 ft 508 kts 127°
2026-04-24 08:53 -4.44357 111.00472 34801 ft 508 kts 127°
2026-04-24 08:54 -4.48677 111.06080 34800 ft 508 kts 127°
2026-04-24 08:54 -4.52997 111.11691 34800 ft 508 kts 127°
2026-04-24 08:55 -4.57316 111.17302 34799 ft 508 kts 127°
2026-04-24 08:55 -4.61609 111.22879 34801 ft 509 kts 127°
2026-04-24 08:56 -4.65949 111.28489 34800 ft 509 kts 127°
2026-04-24 08:56 -4.70300 111.34094 34801 ft 510 kts 127°
2026-04-24 08:57 -4.74660 111.39713 34802 ft 510 kts 127°
2026-04-24 08:57 -4.79018 111.45336 34801 ft 511 kts 127°
2026-04-24 08:58 -4.83374 111.50959 34802 ft 510 kts 127°
2026-04-24 08:58 -4.87724 111.56576 34800 ft 510 kts 127°
2026-04-24 08:59 -4.92071 111.62191 34800 ft 509 kts 127°
2026-04-24 08:59 -4.96403 111.67788 34801 ft 508 kts 127°
2026-04-24 09:00 -5.00741 111.73394 34802 ft 508 kts 127°
2026-04-24 09:00 -5.05066 111.78984 34804 ft 507 kts 127°
2026-04-24 09:01 -5.09394 111.84579 34802 ft 507 kts 127°
2026-04-24 09:01 -5.13723 111.90177 34802 ft 507 kts 127°
2026-04-24 09:02 -5.18044 111.95767 34802 ft 507 kts 127°
2026-04-24 09:02 -5.22360 112.01351 34802 ft 507 kts 127°
2026-04-24 09:03 -5.26654 112.06908 34803 ft 506 kts 127°
2026-04-24 09:03 -5.30967 112.12491 34801 ft 506 kts 127°
2026-04-24 09:04 -5.35273 112.18067 34799 ft 505 kts 127°
2026-04-24 09:04 -5.39572 112.23634 34804 ft 504 kts 127°
2026-04-24 09:05 -5.43872 112.29205 34811 ft 504 kts 127°
2026-04-24 09:05 -5.48162 112.34764 34803 ft 504 kts 127°
2026-04-24 09:06 -5.52452 112.40325 34807 ft 504 kts 127°
2026-04-24 09:06 -5.56744 112.45889 34807 ft 503 kts 127°
2026-04-24 09:07 -5.61003 112.51413 34806 ft 503 kts 127°
2026-04-24 09:07 -5.67433 112.59754 34809 ft 503 kts 127°
2026-04-24 09:08 -5.71717 112.65313 34811 ft 504 kts 127°
2026-04-24 09:08 -5.76010 112.70886 34813 ft 504 kts 127°
2026-04-24 09:09 -5.80300 112.76456 34808 ft 504 kts 127°
2026-04-24 09:09 -5.84591 112.82031 34809 ft 504 kts 127°
2026-04-24 09:10 -5.88882 112.87606 34808 ft 504 kts 127°
2026-04-24 09:10 -5.93172 112.93180 34810 ft 504 kts 127°
2026-04-24 09:11 -5.97463 112.98759 34810 ft 504 kts 127°
2026-04-24 09:11 -6.01727 113.04303 34811 ft 505 kts 127°
2026-04-24 09:12 -6.06018 113.09885 34810 ft 505 kts 127°
2026-04-24 09:12 -6.10310 113.15469 34809 ft 505 kts 127°
2026-04-24 09:13 -6.14599 113.21052 34812 ft 505 kts 127°
2026-04-24 09:13 -6.18891 113.26642 34809 ft 505 kts 127°
2026-04-24 09:14 -6.23248 113.32194 34807 ft 505 kts 131°
2026-04-24 09:14 -6.28323 113.37075 34812 ft 507 kts 141°
2026-04-24 09:15 -6.34045 113.41235 34815 ft 507 kts 143°
2026-04-24 09:15 -6.39829 113.45329 34808 ft 508 kts 143°
2026-04-24 09:16 -6.45551 113.49424 34808 ft 508 kts 143°
2026-04-24 09:16 -6.51301 113.53575 34809 ft 508 kts 143°
2026-04-24 09:17 -6.57048 113.57732 34805 ft 508 kts 143°
2026-04-24 09:17 -6.62797 113.61889 34810 ft 509 kts 143°
2026-04-24 09:18 -6.68549 113.66048 34809 ft 509 kts 143°
2026-04-24 09:18 -6.74297 113.70204 34809 ft 509 kts 143°
2026-04-24 09:19 -6.80009 113.74336 34812 ft 509 kts 143°
2026-04-24 09:19 -6.85754 113.78493 34811 ft 509 kts 143°
2026-04-24 09:20 -6.91503 113.82655 34813 ft 509 kts 143°
2026-04-24 09:20 -6.97255 113.86820 34813 ft 509 kts 143°
2026-04-24 09:21 -7.02972 113.90961 34812 ft 509 kts 143°
2026-04-24 09:21 -7.08733 113.95133 34812 ft 509 kts 143°
2026-04-24 09:22 -7.14483 113.99299 34811 ft 509 kts 143°
2026-04-24 09:22 -7.20247 114.03478 34814 ft 509 kts 143°
2026-04-24 09:23 -7.25995 114.07647 34814 ft 509 kts 143°
2026-04-24 09:23 -7.31749 114.11822 34818 ft 510 kts 143°
2026-04-24 09:24 -7.37470 114.15974 34817 ft 510 kts 143°
2026-04-24 09:24 -7.43228 114.20154 34820 ft 510 kts 143°
2026-04-24 09:25 -7.48987 114.24337 34817 ft 511 kts 143°
2026-04-24 09:25 -7.54760 114.28530 34824 ft 511 kts 143°
2026-04-24 09:26 -7.60535 114.32727 34828 ft 512 kts 143°
2026-04-24 09:26 -7.66309 114.36925 34831 ft 512 kts 143°
2026-04-24 09:27 -7.72095 114.41133 34832 ft 513 kts 143°
2026-04-24 09:27 -7.77883 114.45343 34834 ft 513 kts 143°
2026-04-24 09:28 -7.83671 114.49556 34834 ft 513 kts 143°
2026-04-24 09:28 -7.89424 114.53744 34834 ft 513 kts 143°
2026-04-24 09:29 -7.95211 114.57958 34835 ft 513 kts 143°
2026-04-24 09:29 -8.01012 114.62184 34835 ft 514 kts 143°
2026-04-24 09:30 -8.06815 114.66413 34836 ft 514 kts 143°
2026-04-24 09:30 -8.11648 114.69936 34836 ft 514 kts 143°
2026-04-24 09:31 -8.18397 114.74858 34837 ft 515 kts 143°
2026-04-24 09:31 -8.24207 114.79097 34839 ft 516 kts 143°
2026-04-24 09:32 -8.29050 114.82632 34835 ft 516 kts 143°
2026-04-24 09:32 -8.34861 114.86874 34843 ft 516 kts 143°
2026-04-24 09:33 -8.40680 114.91124 34837 ft 516 kts 143°
2026-04-24 09:33 -8.46507 114.95382 34838 ft 516 kts 143°
2026-04-24 09:34 -8.52321 114.99631 34839 ft 516 kts 143°
2026-04-24 09:34 -8.58102 115.03858 34833 ft 516 kts 143°
2026-04-24 09:35 -8.63915 115.08111 34831 ft 516 kts 143°
2026-04-24 09:35 -8.69736 115.12371 34830 ft 516 kts 143°
2026-04-24 09:36 -8.75513 115.16673 34835 ft 516 kts 140°
2026-04-24 09:36 -8.80841 115.21541 34831 ft 515 kts 136°
2026-04-24 09:37 -8.86064 115.26525 34824 ft 516 kts 136°
2026-04-24 09:37 -8.91298 115.31497 34827 ft 516 kts 136°
2026-04-24 09:38 -8.96556 115.36451 34825 ft 517 kts 136°
2026-04-24 09:38 -9.01828 115.41403 34824 ft 517 kts 136°
2026-04-24 09:39 -9.07102 115.46358 34828 ft 517 kts 136°
2026-04-24 09:39 -9.12341 115.51286 34828 ft 518 kts 136°
2026-04-24 09:40 -9.17611 115.56246 34828 ft 518 kts 136°
2026-04-24 09:40 -9.22890 115.61218 34829 ft 518 kts 136°
2026-04-24 09:41 -9.28170 115.66192 34833 ft 519 kts 136°
2026-04-24 09:41 -9.33457 115.71174 34832 ft 519 kts 136°
2026-04-24 09:42 -9.38740 115.76156 34834 ft 519 kts 136°
2026-04-24 09:42 -9.44032 115.81147 34835 ft 519 kts 136°
2026-04-24 09:43 -9.49319 115.86137 34835 ft 519 kts 136°
2026-04-24 09:43 -9.54582 115.91106 34839 ft 520 kts 136°
2026-04-24 09:44 -9.59869 115.96100 34839 ft 520 kts 136°
2026-04-24 09:44 -9.65166 116.01105 34837 ft 520 kts 136°
2026-04-24 09:45 -9.70466 116.06115 34838 ft 521 kts 136°
2026-04-24 09:45 -9.75774 116.11136 34838 ft 521 kts 136°
2026-04-24 09:46 -9.81072 116.16150 34838 ft 521 kts 136°
2026-04-24 09:46 -9.86349 116.21145 34837 ft 521 kts 136°
2026-04-24 09:47 -9.91653 116.26169 34837 ft 522 kts 136°
2026-04-24 09:47 -9.96964 116.31201 34839 ft 522 kts 136°
2026-04-24 09:48 -10.02270 116.36231 34841 ft 522 kts 136°
2026-04-24 09:48 -10.07575 116.41263 34839 ft 522 kts 136°
2026-04-24 09:49 -10.12849 116.46267 34844 ft 522 kts 136°
2026-04-24 09:49 -10.18151 116.51301 34840 ft 522 kts 136°
2026-04-24 09:50 -10.23459 116.56343 34838 ft 522 kts 136°
2026-04-24 09:50 -10.28762 116.61382 34840 ft 522 kts 136°
2026-04-24 09:51 -10.34072 116.66429 34840 ft 522 kts 136°
2026-04-24 09:51 -10.39378 116.71477 34845 ft 523 kts 136°
2026-04-24 09:52 -10.44684 116.76526 34848 ft 523 kts 136°
2026-04-24 09:52 -10.49998 116.81586 34849 ft 524 kts 136°
2026-04-24 09:53 -10.55286 116.86623 34849 ft 524 kts 136°
2026-04-24 09:53 -10.60603 116.91691 34850 ft 524 kts 136°
2026-04-24 09:54 -10.65931 116.96771 34849 ft 525 kts 136°
2026-04-24 09:54 -10.71266 117.01860 34848 ft 526 kts 136°
2026-04-24 09:55 -10.76602 117.06954 34848 ft 526 kts 136°
2026-04-24 09:55 -10.81944 117.12055 34854 ft 527 kts 136°
2026-04-24 09:56 -10.87298 117.17170 34856 ft 527 kts 136°
2026-04-24 09:56 -10.92641 117.22279 34869 ft 527 kts 136°
2026-04-24 09:57 -10.95311 117.24832 35141 ft 524 kts 136°
2026-04-24 09:57 -10.97950 117.27356 35554 ft 519 kts 136°
2026-04-24 09:57 -11.00582 117.29874 35729 ft 520 kts 136°
2026-04-24 09:57 -11.03184 117.32365 35945 ft 519 kts 136°
2026-04-24 09:58 -11.05816 117.34884 36143 ft 519 kts 136°
2026-04-24 09:58 -11.08446 117.37402 36321 ft 519 kts 136°
2026-04-24 09:58 -11.11067 117.39913 36586 ft 518 kts 136°
2026-04-24 09:58 -11.13692 117.42428 36754 ft 518 kts 136°
2026-04-24 09:59 -11.18967 117.47485 36853 ft 522 kts 136°
2026-04-24 09:59 -11.24298 117.52598 36865 ft 528 kts 136°
2026-04-24 10:00 -11.29668 117.57750 36872 ft 532 kts 136°
2026-04-24 10:00 -11.35043 117.62910 36860 ft 530 kts 136°
2026-04-24 10:01 -11.40423 117.68077 36871 ft 534 kts 136°
2026-04-24 10:01 -11.45822 117.73264 36859 ft 532 kts 136°
2026-04-24 10:02 -11.51218 117.78453 36871 ft 534 kts 136°
2026-04-24 10:02 -11.56569 117.83602 36860 ft 531 kts 136°
2026-04-24 10:03 -11.61940 117.88772 36868 ft 531 kts 136°
2026-04-24 10:03 -11.67327 117.93961 36874 ft 535 kts 136°
2026-04-24 10:04 -11.72729 117.99168 36863 ft 533 kts 136°
2026-04-24 10:04 -11.78129 118.04375 36878 ft 534 kts 136°
2026-04-24 10:05 -11.83531 118.09586 36875 ft 533 kts 136°
2026-04-24 10:05 -11.88919 118.14789 36878 ft 535 kts 136°
2026-04-24 10:06 -11.97011 118.22607 36871 ft 531 kts 136°
2026-04-24 10:07 -12.02366 118.27785 36885 ft 535 kts 136°
2026-04-24 10:07 -12.07771 118.33008 36870 ft 532 kts 136°
2026-04-24 10:08 -12.13141 118.38201 36886 ft 532 kts 136°
2026-04-24 10:08 -12.18542 118.43431 36889 ft 536 kts 136°
2026-04-24 10:09 -12.23941 118.48662 36876 ft 533 kts 136°
2026-04-24 10:09 -12.29289 118.53846 36889 ft 534 kts 136°
2026-04-24 10:10 -12.34683 118.59077 36885 ft 534 kts 136°
2026-04-24 10:10 -12.40065 118.64300 36890 ft 533 kts 136°
2026-04-24 10:11 -12.45462 118.69542 36889 ft 534 kts 136°
2026-04-24 10:11 -12.50839 118.74767 36890 ft 533 kts 136°
2026-04-24 10:12 -12.56227 118.80005 36896 ft 534 kts 136°
2026-04-24 10:12 -12.61627 118.85259 36895 ft 535 kts 136°
2026-04-24 10:13 -12.67021 118.90509 36896 ft 533 kts 136°
2026-04-24 10:13 -12.72375 118.95724 36899 ft 535 kts 136°
2026-04-24 10:14 -12.77759 119.00971 36894 ft 532 kts 136°
2026-04-24 10:14 -12.83131 119.06211 36906 ft 534 kts 136°
2026-04-24 10:15 -12.88523 119.11473 36904 ft 536 kts 136°
2026-04-24 10:15 -12.93907 119.16729 36897 ft 533 kts 136°
2026-04-24 10:16 -12.99274 119.21973 36908 ft 534 kts 136°
2026-04-24 10:16 -13.04634 119.27214 36906 ft 535 kts 136°
2026-04-24 10:17 -13.09135 119.31617 36899 ft 532 kts 136°
2026-04-24 10:17 -13.15341 119.37692 36907 ft 529 kts 136°
2026-04-24 10:18 -13.19748 119.42008 36906 ft 525 kts 136°
2026-04-24 10:18 -13.25024 119.47179 36911 ft 523 kts 136°
2026-04-24 10:19 -13.30289 119.52342 36912 ft 522 kts 136°
2026-04-24 10:19 -13.35522 119.57478 36910 ft 519 kts 136°
2026-04-24 10:20 -13.40754 119.62616 36920 ft 521 kts 136°
2026-04-24 10:20 -13.45986 119.67756 36912 ft 519 kts 136°
2026-04-24 10:21 -13.51215 119.72897 36929 ft 521 kts 136°
2026-04-24 10:21 -13.56451 119.78048 36917 ft 520 kts 136°
2026-04-24 10:22 -13.61680 119.83196 36925 ft 521 kts 136°
2026-04-24 10:22 -13.66900 119.88337 36928 ft 520 kts 136°
2026-04-24 10:23 -13.72136 119.93499 36928 ft 522 kts 136°
2026-04-24 10:23 -13.77342 119.98634 36931 ft 521 kts 136°
2026-04-24 10:24 -13.82580 120.03804 36932 ft 522 kts 136°
2026-04-24 10:24 -13.87816 120.08975 36927 ft 520 kts 136°
2026-04-24 10:25 -13.93040 120.14137 36940 ft 521 kts 136°
2026-04-24 10:25 -13.98283 120.19323 36933 ft 521 kts 136°
2026-04-24 10:26 -14.03495 120.24481 36939 ft 524 kts 136°
2026-04-24 10:26 -14.08780 120.29714 36945 ft 529 kts 136°
2026-04-24 10:27 -14.14107 120.34992 36945 ft 533 kts 136°
2026-04-24 10:27 -14.19470 120.40310 36943 ft 534 kts 136°
2026-04-24 10:28 -14.24816 120.45615 36932 ft 531 kts 136°
2026-04-24 10:28 -14.30075 120.50837 36930 ft 525 kts 136°
2026-04-24 10:29 -14.35315 120.56044 36937 ft 522 kts 136°
2026-04-24 10:29 -14.40543 120.61243 36944 ft 521 kts 136°
2026-04-24 10:30 -14.45766 120.66439 36942 ft 522 kts 136°
2026-04-24 10:30 -14.51001 120.71652 36944 ft 523 kts 136°
2026-04-24 10:31 -14.56249 120.76882 36945 ft 524 kts 136°
2026-04-24 10:31 -14.61505 120.82122 36946 ft 525 kts 136°
2026-04-24 10:32 -14.66765 120.87371 36942 ft 526 kts 135°
2026-04-24 10:32 -14.72000 120.92597 36947 ft 527 kts 136°
2026-04-24 10:33 -14.77282 120.97876 36926 ft 528 kts 136°
2026-04-24 10:33 -14.82567 121.03162 36952 ft 529 kts 136°
2026-04-24 10:34 -14.87865 121.08470 36952 ft 531 kts 136°
2026-04-24 10:34 -14.93174 121.13784 36956 ft 532 kts 136°
2026-04-24 10:35 -14.98491 121.19104 36956 ft 533 kts 136°
2026-04-24 10:35 -15.03781 121.24408 36953 ft 533 kts 136°
2026-04-24 10:36 -15.09116 121.29762 36954 ft 534 kts 136°
2026-04-24 10:36 -15.14446 121.35116 36954 ft 534 kts 136°
2026-04-24 10:37 -15.19773 121.40470 36953 ft 534 kts 136°
2026-04-24 10:37 -15.25098 121.45826 36952 ft 534 kts 136°
2026-04-24 10:38 -15.30423 121.51186 36957 ft 534 kts 136°
2026-04-24 10:38 -15.35749 121.56550 36957 ft 533 kts 136°
2026-04-24 10:39 -15.41071 121.61915 36960 ft 533 kts 136°
2026-04-24 10:39 -15.46355 121.67245 36958 ft 533 kts 136°
2026-04-24 10:40 -15.51672 121.72613 36962 ft 534 kts 136°
2026-04-24 10:40 -15.56995 121.77991 36963 ft 534 kts 136°
2026-04-24 10:41 -15.62311 121.83367 36960 ft 534 kts 136°
2026-04-24 10:41 -15.67634 121.88752 36961 ft 534 kts 136°
2026-04-24 10:42 -15.72947 121.94132 36964 ft 534 kts 136°
2026-04-24 10:42 -15.78273 121.99530 36963 ft 534 kts 136°
2026-04-24 10:43 -15.83591 122.04924 36963 ft 535 kts 136°
2026-04-24 10:43 -15.88914 122.10326 36959 ft 535 kts 136°
2026-04-24 10:44 -15.94232 122.15728 36964 ft 535 kts 136°
2026-04-24 10:44 -15.99522 122.21106 36966 ft 535 kts 136°
2026-04-24 10:45 -16.04847 122.26524 36964 ft 536 kts 136°
2026-04-24 10:45 -16.10173 122.31946 36965 ft 536 kts 136°
2026-04-24 10:46 -16.15499 122.37374 36967 ft 536 kts 136°
2026-04-24 10:46 -16.20820 122.42801 36968 ft 536 kts 136°
2026-04-24 10:47 -16.26148 122.48238 36965 ft 536 kts 136°
2026-04-24 10:47 -16.31473 122.53677 36964 ft 536 kts 136°
2026-04-24 10:48 -16.36804 122.59127 36966 ft 536 kts 136°
2026-04-24 10:48 -16.42123 122.64569 36967 ft 536 kts 136°
2026-04-24 10:49 -16.47445 122.70018 36970 ft 536 kts 136°
2026-04-24 10:49 -16.52767 122.75472 36962 ft 536 kts 136°
2026-04-24 10:50 -16.58056 122.80896 36964 ft 536 kts 136°
2026-04-24 10:50 -16.63378 122.86359 36963 ft 536 kts 136°
2026-04-24 10:51 -16.68690 122.91816 36962 ft 536 kts 136°
2026-04-24 10:51 -16.74014 122.97290 36961 ft 536 kts 136°
2026-04-24 10:52 -16.79326 123.02756 36961 ft 536 kts 136°
2026-04-24 10:52 -16.84639 123.08227 36964 ft 536 kts 136°
2026-04-24 10:53 -16.89916 123.13667 36960 ft 536 kts 136°
2026-04-24 10:53 -16.95225 123.19144 36961 ft 536 kts 136°
2026-04-24 10:54 -17.00543 123.24634 36956 ft 537 kts 136°
2026-04-24 10:54 -17.05848 123.30116 36958 ft 537 kts 136°
2026-04-24 10:55 -17.11158 123.35607 36958 ft 537 kts 136°
2026-04-24 10:55 -17.16472 123.41107 36957 ft 537 kts 136°
2026-04-24 10:56 -17.21785 123.46611 36953 ft 537 kts 136°
2026-04-24 10:56 -17.27058 123.52079 36957 ft 538 kts 136°
2026-04-24 10:57 -17.32370 123.57591 36956 ft 538 kts 136°
2026-04-24 10:57 -17.37678 123.63104 36958 ft 538 kts 136°
2026-04-24 10:58 -17.42995 123.68633 36964 ft 538 kts 136°
2026-04-24 10:58 -17.48304 123.74157 36970 ft 539 kts 136°
2026-04-24 10:59 -17.53618 123.79692 36967 ft 539 kts 136°
2026-04-24 10:59 -17.58867 123.85318 36969 ft 540 kts 131°
2026-04-24 11:00 -17.63373 123.91609 36975 ft 540 kts 125°
2026-04-24 11:00 -17.67640 123.98092 36969 ft 540 kts 125°
2026-04-24 11:01 -17.71922 124.04570 36966 ft 541 kts 125°
2026-04-24 11:01 -17.76244 124.11037 36967 ft 541 kts 125°
2026-04-24 11:02 -17.79845 124.16404 36969 ft 541 kts 126°
2026-04-24 11:02 -17.84171 124.22858 36965 ft 541 kts 125°
2026-04-24 11:03 -17.88497 124.29324 36968 ft 541 kts 125°
2026-04-24 11:03 -17.92819 124.35794 36975 ft 541 kts 125°
2026-04-24 11:04 -17.97840 124.43317 36971 ft 541 kts 125°
2026-04-24 11:04 -18.01463 124.48753 36977 ft 541 kts 125°
2026-04-24 11:05 -18.05780 124.55233 36978 ft 542 kts 125°
2026-04-24 11:05 -18.10072 124.61683 36985 ft 542 kts 125°
2026-04-24 11:06 -18.14387 124.68175 36982 ft 542 kts 125°
2026-04-24 11:06 -18.18708 124.74680 36983 ft 542 kts 125°
2026-04-24 11:07 -18.25185 124.84446 37000 ft 542 kts 125°
2026-04-24 11:07 -18.29494 124.90951 37004 ft 542 kts 125°
2026-04-24 11:08 -18.33807 124.97468 37014 ft 542 kts 125°
2026-04-24 11:08 -18.38113 125.03981 37009 ft 542 kts 125°
2026-04-24 11:09 -18.42416 125.10496 37008 ft 542 kts 125°
2026-04-24 11:09 -18.46724 125.17026 37021 ft 542 kts 125°
2026-04-24 11:10 -18.51024 125.23550 37024 ft 542 kts 125°
2026-04-24 11:10 -18.55323 125.30079 37021 ft 542 kts 125°
2026-04-24 11:11 -18.59596 125.36575 37030 ft 542 kts 125°
2026-04-24 11:11 -18.63893 125.43116 37025 ft 543 kts 125°
2026-04-24 11:12 -18.68199 125.49676 37032 ft 543 kts 125°
2026-04-24 11:12 -18.72505 125.56243 37032 ft 543 kts 125°
2026-04-24 11:13 -18.76807 125.62810 37037 ft 544 kts 125°
2026-04-24 11:13 -18.81074 125.69331 37036 ft 544 kts 125°
2026-04-24 11:14 -18.85372 125.75906 37040 ft 544 kts 125°
2026-04-24 11:14 -18.89663 125.82479 37037 ft 544 kts 125°
2026-04-24 11:15 -18.93957 125.89062 37045 ft 544 kts 125°
2026-04-24 11:15 -18.98251 125.95651 37047 ft 545 kts 125°
2026-04-24 11:16 -19.02545 126.02248 37053 ft 545 kts 125°
2026-04-24 11:16 -19.06842 126.08856 37051 ft 545 kts 125°
2026-04-24 11:17 -19.11137 126.15470 37058 ft 546 kts 125°
2026-04-24 11:17 -19.15434 126.22092 37054 ft 546 kts 125°
2026-04-24 11:18 -19.19703 126.28679 37045 ft 546 kts 125°
2026-04-24 11:18 -19.24001 126.35317 37044 ft 546 kts 125°
2026-04-24 11:19 -19.28293 126.41955 37047 ft 546 kts 125°
2026-04-24 11:19 -19.32583 126.48596 37052 ft 546 kts 125°
2026-04-24 11:20 -19.36872 126.55242 37058 ft 547 kts 125°
2026-04-24 11:20 -19.41162 126.61898 37059 ft 547 kts 125°
2026-04-24 11:21 -19.45452 126.68563 37063 ft 547 kts 125°
2026-04-24 11:21 -19.49734 126.75230 37064 ft 547 kts 125°
2026-04-24 11:22 -19.54016 126.81910 37067 ft 548 kts 125°
2026-04-24 11:22 -19.58290 126.88585 37066 ft 548 kts 126°
2026-04-24 11:23 -19.62570 126.95274 37073 ft 548 kts 126°
2026-04-24 11:23 -19.66817 127.01920 37077 ft 548 kts 126°
2026-04-24 11:24 -19.71092 127.08618 37073 ft 548 kts 126°
2026-04-24 11:24 -19.75367 127.15321 37081 ft 548 kts 126°
2026-04-24 11:25 -19.79639 127.22028 37080 ft 548 kts 126°
2026-04-24 11:25 -19.83910 127.28742 37084 ft 548 kts 126°
2026-04-24 11:26 -19.88183 127.35465 37087 ft 549 kts 126°
2026-04-24 11:26 -19.92452 127.42190 37083 ft 549 kts 126°
2026-04-24 11:27 -19.96711 127.48907 37086 ft 549 kts 126°
2026-04-24 11:27 -20.00973 127.55637 37088 ft 548 kts 126°
2026-04-24 11:28 -20.05233 127.62371 37093 ft 548 kts 126°
2026-04-24 11:28 -20.09491 127.69108 37096 ft 549 kts 126°
2026-04-24 11:29 -20.13743 127.75846 37099 ft 549 kts 126°
2026-04-24 11:29 -20.17993 127.82586 37102 ft 549 kts 126°
2026-04-24 11:30 -20.22245 127.89338 37102 ft 549 kts 126°
2026-04-24 11:30 -20.26496 127.96096 37103 ft 549 kts 126°
2026-04-24 11:31 -20.30718 128.02816 37110 ft 549 kts 126°
2026-04-24 11:31 -20.34961 128.09577 37111 ft 549 kts 126°
2026-04-24 11:32 -20.39202 128.16343 37112 ft 549 kts 126°
2026-04-24 11:32 -20.43443 128.23117 37117 ft 549 kts 126°
2026-04-24 11:33 -20.47683 128.29897 37117 ft 549 kts 126°
2026-04-24 11:33 -20.51920 128.36680 37116 ft 550 kts 126°
2026-04-24 11:34 -20.56154 128.43466 37123 ft 550 kts 126°
2026-04-24 11:34 -20.60389 128.50263 37126 ft 550 kts 126°
2026-04-24 11:35 -20.64626 128.57070 37108 ft 550 kts 126°
2026-04-24 11:35 -20.68854 128.63871 37131 ft 550 kts 126°
2026-04-24 11:36 -20.73082 128.70679 37130 ft 550 kts 126°
2026-04-24 11:36 -20.77307 128.77492 37114 ft 550 kts 126°
2026-04-24 11:37 -20.81503 128.84266 37118 ft 550 kts 126°
2026-04-24 11:37 -20.85721 128.91083 37119 ft 550 kts 126°
2026-04-24 11:38 -20.89942 128.97913 37139 ft 550 kts 126°
2026-04-24 11:38 -20.94059 129.04793 37120 ft 548 kts 124°
2026-04-24 11:39 -20.98212 129.11615 37135 ft 548 kts 126°
2026-04-24 11:39 -21.02474 129.18389 37127 ft 549 kts 126°
2026-04-24 11:40 -21.06711 129.25194 37127 ft 550 kts 126°
2026-04-24 11:40 -21.10915 129.32027 37135 ft 550 kts 126°
2026-04-24 11:41 -21.15143 129.38881 37129 ft 551 kts 126°
2026-04-24 11:41 -21.19355 129.45744 37133 ft 551 kts 126°
2026-04-24 11:42 -21.23559 129.52622 37137 ft 551 kts 126°
2026-04-24 11:42 -21.27757 129.59498 37135 ft 551 kts 126°
2026-04-24 11:43 -21.31930 129.66318 37135 ft 551 kts 126°
2026-04-24 11:43 -21.36130 129.73192 37137 ft 550 kts 126°
2026-04-24 11:44 -21.40319 129.80072 37141 ft 550 kts 126°
2026-04-24 11:44 -21.44504 129.86957 37142 ft 551 kts 126°
2026-04-24 11:45 -21.48687 129.93845 37144 ft 551 kts 126°
2026-04-24 11:45 -21.52872 130.00744 37142 ft 551 kts 126°
2026-04-24 11:46 -21.57054 130.07644 37149 ft 551 kts 126°
2026-04-24 11:46 -21.61215 130.14520 37149 ft 551 kts 126°
2026-04-24 11:47 -21.65395 130.21431 37152 ft 552 kts 126°
2026-04-24 11:47 -21.69576 130.28350 37153 ft 552 kts 126°
2026-04-24 11:48 -21.73753 130.35280 37159 ft 552 kts 126°
2026-04-24 11:48 -21.77930 130.42219 37159 ft 552 kts 126°
2026-04-24 11:49 -21.82099 130.49154 37160 ft 552 kts 126°
2026-04-24 11:49 -21.86269 130.56099 37167 ft 552 kts 126°
2026-04-24 11:50 -21.89732 130.61875 37166 ft 552 kts 126°
2026-04-24 11:50 -21.93896 130.68824 37169 ft 552 kts 126°
2026-04-24 11:51 -21.98060 130.75782 37173 ft 552 kts 126°
2026-04-24 11:51 -22.02896 130.83866 37179 ft 552 kts 126°
2026-04-24 11:52 -22.06387 130.89711 37178 ft 553 kts 126°
2026-04-24 11:52 -22.10541 130.96676 37181 ft 553 kts 126°
2026-04-24 11:53 -22.14671 131.03609 37182 ft 553 kts 126°
2026-04-24 11:53 -22.18823 131.10590 37188 ft 552 kts 126°
2026-04-24 11:54 -22.22972 131.17573 37186 ft 552 kts 126°
2026-04-24 11:54 -22.27116 131.24559 37192 ft 552 kts 126°
2026-04-24 11:55 -22.31260 131.31553 37194 ft 552 kts 126°
2026-04-24 11:55 -22.35393 131.38537 37196 ft 552 kts 127°
2026-04-24 11:56 -22.39528 131.45535 37185 ft 552 kts 126°
2026-04-24 11:56 -22.43661 131.52536 37195 ft 552 kts 126°
2026-04-24 11:57 -22.47795 131.59551 37192 ft 553 kts 126°
2026-04-24 11:57 -22.51920 131.66559 37203 ft 553 kts 126°
2026-04-24 11:58 -22.56059 131.73600 37203 ft 554 kts 126°
2026-04-24 11:58 -22.60163 131.80591 37202 ft 555 kts 126°
2026-04-24 11:59 -22.64302 131.87652 37198 ft 555 kts 127°
2026-04-24 11:59 -22.68439 131.94718 37204 ft 556 kts 127°
2026-04-24 12:00 -22.72575 132.01794 37207 ft 556 kts 127°
2026-04-24 12:00 -22.76706 132.08868 37216 ft 555 kts 127°
2026-04-24 12:01 -22.80833 132.15947 37214 ft 555 kts 127°
2026-04-24 12:01 -22.84950 132.23019 37213 ft 554 kts 127°
2026-04-24 12:02 -22.89057 132.30081 37213 ft 553 kts 127°
2026-04-24 12:02 -22.93163 132.37148 37212 ft 553 kts 127°
2026-04-24 12:03 -22.97226 132.44165 37208 ft 553 kts 127°
2026-04-24 12:03 -23.01317 132.51229 37215 ft 552 kts 127°
2026-04-24 12:04 -23.05404 132.58289 37235 ft 552 kts 127°
2026-04-24 12:04 -23.09489 132.65360 37223 ft 552 kts 127°
2026-04-24 12:05 -23.13568 132.72433 37226 ft 553 kts 127°
2026-04-24 12:05 -23.17650 132.79522 37223 ft 553 kts 127°
2026-04-24 12:06 -23.21730 132.86616 37230 ft 553 kts 127°
2026-04-24 12:06 -23.25810 132.93721 37228 ft 553 kts 127°
2026-04-24 12:07 -23.29863 133.00788 37234 ft 553 kts 127°
2026-04-24 12:07 -23.33932 133.07893 37235 ft 553 kts 127°
2026-04-24 12:08 -23.38005 133.15014 37238 ft 553 kts 127°
2026-04-24 12:08 -23.42070 133.22132 37237 ft 553 kts 127°
2026-04-24 12:09 -23.46127 133.29245 37243 ft 553 kts 127°
2026-04-24 12:09 -23.50183 133.36367 37248 ft 553 kts 127°
2026-04-24 12:10 -23.54231 133.43486 37246 ft 553 kts 127°
2026-04-24 12:11 -23.60275 133.54131 37257 ft 552 kts 127°
2026-04-24 12:11 -23.64308 133.61249 37252 ft 552 kts 127°
2026-04-24 12:12 -23.68347 133.68387 37261 ft 552 kts 127°
2026-04-24 12:12 -23.72380 133.75525 37264 ft 552 kts 127°
2026-04-24 12:13 -23.76406 133.82662 37265 ft 552 kts 127°
2026-04-24 12:13 -23.80597 133.89651 37272 ft 545 kts 134°
2026-04-24 12:14 -23.85404 133.96011 37271 ft 542 kts 137°
2026-04-24 12:14 -23.90289 134.02298 37260 ft 542 kts 137°
2026-04-24 12:15 -23.95111 134.08573 37265 ft 543 kts 136°
2026-04-24 12:15 -23.99944 134.14937 37253 ft 543 kts 136°
2026-04-24 12:16 -24.04756 134.21301 37253 ft 543 kts 136°
2026-04-24 12:16 -24.09572 134.27675 37250 ft 543 kts 136°
2026-04-24 12:17 -24.14387 134.34050 37245 ft 543 kts 136°
2026-04-24 12:17 -24.19194 134.40422 37256 ft 542 kts 136°
2026-04-24 12:18 -24.23997 134.46795 37245 ft 542 kts 136°
2026-04-24 12:18 -24.28795 134.53170 37246 ft 542 kts 136°
2026-04-24 12:19 -24.33585 134.59544 37243 ft 541 kts 136°
2026-04-24 12:19 -24.38383 134.65936 37239 ft 541 kts 136°
2026-04-24 12:20 -24.43165 134.72316 37240 ft 541 kts 136°
2026-04-24 12:20 -24.47941 134.78696 37238 ft 541 kts 136°
2026-04-24 12:21 -24.52712 134.85078 37243 ft 541 kts 136°
2026-04-24 12:21 -24.57481 134.91466 37243 ft 541 kts 136°
2026-04-24 12:22 -24.62247 134.97858 37239 ft 540 kts 136°
2026-04-24 12:22 -24.66974 135.04206 37240 ft 540 kts 136°
2026-04-24 12:23 -24.71728 135.10599 37243 ft 540 kts 136°
2026-04-24 12:23 -24.76479 135.16996 37235 ft 540 kts 136°
2026-04-24 12:24 -24.81227 135.23398 37244 ft 540 kts 136°
2026-04-24 12:24 -24.85973 135.29806 37241 ft 540 kts 137°
2026-04-24 12:25 -24.90720 135.36224 37244 ft 540 kts 137°
2026-04-24 12:25 -24.95463 135.42644 37243 ft 540 kts 137°
2026-04-24 12:26 -25.00199 135.49064 37239 ft 540 kts 137°
2026-04-24 12:26 -25.04939 135.55499 37240 ft 540 kts 137°
2026-04-24 12:27 -25.09676 135.61938 37242 ft 540 kts 137°
2026-04-24 12:27 -25.14408 135.68379 37237 ft 540 kts 137°
2026-04-24 12:28 -25.19142 135.74832 37239 ft 540 kts 137°
2026-04-24 12:28 -25.23860 135.81272 37238 ft 540 kts 137°
2026-04-24 12:29 -25.28580 135.87723 37239 ft 540 kts 137°
2026-04-24 12:29 -25.33294 135.94175 37230 ft 539 kts 137°
2026-04-24 12:30 -25.38009 136.00637 37233 ft 539 kts 137°
2026-04-24 12:30 -25.42715 136.07096 37231 ft 539 kts 137°
2026-04-24 12:31 -25.47418 136.13558 37230 ft 539 kts 137°
2026-04-24 12:31 -25.52094 136.19994 37238 ft 539 kts 137°
2026-04-24 12:32 -25.56790 136.26465 37238 ft 539 kts 137°
2026-04-24 12:32 -25.61483 136.32942 37236 ft 539 kts 137°
2026-04-24 12:33 -25.66169 136.39419 37236 ft 539 kts 137°
2026-04-24 12:33 -25.70858 136.45908 37235 ft 538 kts 138°
2026-04-24 12:34 -25.75540 136.52397 37242 ft 538 kts 138°
2026-04-24 12:34 -25.80218 136.58890 37237 ft 538 kts 138°
2026-04-24 12:35 -25.84864 136.65347 37236 ft 538 kts 138°
2026-04-24 12:35 -25.89534 136.71847 37238 ft 538 kts 138°
2026-04-24 12:36 -25.93446 136.77297 37236 ft 539 kts 138°
2026-04-24 12:36 -25.98115 136.83813 37232 ft 539 kts 138°
2026-04-24 12:37 -26.03534 136.91389 37238 ft 538 kts 138°
2026-04-24 12:37 -26.07408 136.96812 37230 ft 538 kts 138°
2026-04-24 12:38 -26.12064 137.03340 37237 ft 538 kts 138°
2026-04-24 12:38 -26.16719 137.09875 37234 ft 538 kts 138°
2026-04-24 12:39 -26.26002 137.22935 37238 ft 537 kts 138°
2026-04-24 12:40 -26.30637 137.29471 37238 ft 537 kts 138°
2026-04-24 12:40 -26.35266 137.36007 37225 ft 537 kts 138°
2026-04-24 12:41 -26.39880 137.42532 37241 ft 536 kts 138°
2026-04-24 12:41 -26.44493 137.49064 37245 ft 535 kts 138°
2026-04-24 12:42 -26.49094 137.55588 37236 ft 535 kts 138°
2026-04-24 12:42 -26.53686 137.62110 37239 ft 534 kts 138°
2026-04-24 12:43 -26.58274 137.68636 37241 ft 534 kts 138°
2026-04-24 12:43 -26.62856 137.75160 37236 ft 533 kts 138°
2026-04-24 12:44 -26.67431 137.81687 37243 ft 533 kts 138°
2026-04-24 12:44 -26.71973 137.88175 37240 ft 532 kts 138°
2026-04-24 12:45 -26.76534 137.94700 37238 ft 532 kts 138°
2026-04-24 12:45 -26.81088 138.01224 37239 ft 531 kts 138°
2026-04-24 12:46 -26.85632 138.07745 37242 ft 531 kts 138°
2026-04-24 12:46 -26.90172 138.14267 37233 ft 531 kts 138°
2026-04-24 12:47 -26.94704 138.20788 37239 ft 530 kts 138°
2026-04-24 12:47 -26.99232 138.27310 37242 ft 530 kts 138°
2026-04-24 12:48 -27.03761 138.33845 37240 ft 530 kts 138°
2026-04-24 12:48 -27.08282 138.40380 37243 ft 530 kts 138°
2026-04-24 12:49 -27.12795 138.46914 37246 ft 530 kts 138°
2026-04-24 12:49 -27.17302 138.53447 37239 ft 529 kts 138°
2026-04-24 12:50 -27.21808 138.59989 37242 ft 529 kts 139°
2026-04-24 12:50 -27.26308 138.66532 37239 ft 528 kts 139°
2026-04-24 12:51 -27.30798 138.73071 37245 ft 528 kts 139°
2026-04-24 12:51 -27.35253 138.79567 37242 ft 528 kts 139°
2026-04-24 12:52 -27.39738 138.86117 37248 ft 528 kts 139°
2026-04-24 12:52 -27.44211 138.92659 37250 ft 527 kts 139°
2026-04-24 12:53 -27.48682 138.99208 37249 ft 527 kts 139°
2026-04-24 12:53 -27.53148 139.05762 37246 ft 527 kts 139°
2026-04-24 12:54 -27.57609 139.12316 37250 ft 526 kts 139°
2026-04-24 12:54 -27.62058 139.18862 37251 ft 526 kts 139°
2026-04-24 12:55 -27.66509 139.25421 37249 ft 526 kts 139°
2026-04-24 12:55 -27.70925 139.31938 37251 ft 526 kts 139°
2026-04-24 12:56 -27.75364 139.38499 37248 ft 525 kts 139°
2026-04-24 12:56 -27.79798 139.45062 37253 ft 525 kts 139°
2026-04-24 12:57 -27.84230 139.51634 37253 ft 525 kts 139°
2026-04-24 12:57 -27.88650 139.58197 37242 ft 525 kts 139°
2026-04-24 12:58 -27.93068 139.64767 37252 ft 524 kts 139°
2026-04-24 12:58 -27.97480 139.71337 37259 ft 524 kts 139°
2026-04-24 12:59 -28.01888 139.77912 37257 ft 524 kts 139°
2026-04-24 12:59 -28.06291 139.84491 37256 ft 524 kts 139°
2026-04-24 13:00 -28.10686 139.91067 37254 ft 523 kts 139°
2026-04-24 13:00 -28.15075 139.97645 37257 ft 523 kts 139°
2026-04-24 13:01 -28.19458 140.04223 37261 ft 522 kts 139°
2026-04-24 13:01 -28.23825 140.10786 37258 ft 521 kts 139°
2026-04-24 13:02 -28.28185 140.17351 37262 ft 520 kts 138°
2026-04-24 13:02 -28.32527 140.23900 37261 ft 519 kts 139°
2026-04-24 13:03 -28.36859 140.30440 37265 ft 517 kts 139°
2026-04-24 13:03 -28.41148 140.36927 37264 ft 516 kts 138°
2026-04-24 13:04 -28.45449 140.43442 37261 ft 515 kts 138°
2026-04-24 13:04 -28.49739 140.49949 37267 ft 514 kts 138°
2026-04-24 13:05 -28.54016 140.56447 37278 ft 513 kts 138°
2026-04-24 13:05 -28.58284 140.62941 37277 ft 513 kts 138°
2026-04-24 13:06 -28.62553 140.69444 37269 ft 513 kts 138°
2026-04-24 13:06 -28.66813 140.75947 37277 ft 512 kts 137°
2026-04-24 13:07 -28.71075 140.82462 37280 ft 513 kts 137°
2026-04-24 13:07 -28.75336 140.88985 37284 ft 513 kts 137°
2026-04-24 13:08 -28.79593 140.95513 37287 ft 513 kts 136°
2026-04-24 13:08 -28.83850 141.02052 37290 ft 514 kts 136°
2026-04-24 13:09 -28.90245 141.11893 37297 ft 514 kts 136°
2026-04-24 13:09 -28.94471 141.18407 37289 ft 514 kts 136°
2026-04-24 13:10 -28.98727 141.24971 37305 ft 514 kts 135°
2026-04-24 13:10 -29.02976 141.31551 37292 ft 515 kts 135°
2026-04-24 13:11 -29.07228 141.38142 37299 ft 515 kts 135°
2026-04-24 13:11 -29.11480 141.44740 37301 ft 515 kts 134°
2026-04-24 13:12 -29.15729 141.51343 37304 ft 515 kts 134°
2026-04-24 13:12 -29.19966 141.57940 37309 ft 514 kts 134°
2026-04-24 13:13 -29.24172 141.64497 37310 ft 514 kts 134°
2026-04-24 13:13 -29.28396 141.71094 37309 ft 513 kts 133°
2026-04-24 13:14 -29.32614 141.77692 37314 ft 513 kts 133°
2026-04-24 13:14 -29.36830 141.84296 37311 ft 513 kts 133°
2026-04-24 13:15 -29.41038 141.90897 37318 ft 512 kts 133°
2026-04-24 13:15 -29.45239 141.97499 37323 ft 512 kts 133°
2026-04-24 13:16 -29.49433 142.04101 37321 ft 512 kts 133°
2026-04-24 13:16 -29.53597 142.10667 37321 ft 511 kts 132°
2026-04-24 13:17 -29.57775 142.17266 37327 ft 511 kts 132°
2026-04-24 13:17 -29.61950 142.23868 37324 ft 510 kts 132°
2026-04-24 13:18 -29.66115 142.30466 37323 ft 510 kts 132°
2026-04-24 13:18 -29.70276 142.37070 37323 ft 509 kts 132°
2026-04-24 13:19 -29.74428 142.43668 37328 ft 509 kts 132°
2026-04-24 13:19 -29.78569 142.50262 37315 ft 508 kts 132°
2026-04-24 13:20 -29.82005 142.55740 37321 ft 508 kts 132°
2026-04-24 13:20 -29.86149 142.62358 37326 ft 508 kts 131°
2026-04-24 13:21 -29.90297 142.68942 37329 ft 506 kts 134°
2026-04-24 13:21 -29.94683 142.75270 37331 ft 505 kts 135°
2026-04-24 13:22 -29.99148 142.81521 37334 ft 504 kts 135°
2026-04-24 13:22 -30.03601 142.87788 37336 ft 505 kts 135°
2026-04-24 13:23 -30.08028 142.94077 37335 ft 505 kts 135°
2026-04-24 13:23 -30.12440 143.00374 37335 ft 505 kts 135°
2026-04-24 13:24 -30.16851 143.06682 37341 ft 504 kts 134°
2026-04-24 13:24 -30.21260 143.12992 37342 ft 504 kts 134°
2026-04-24 13:25 -30.25659 143.19298 37342 ft 504 kts 134°
2026-04-24 13:25 -30.30054 143.25606 37342 ft 503 kts 134°
2026-04-24 13:26 -30.34440 143.31911 37344 ft 503 kts 134°
2026-04-24 13:26 -30.38825 143.38226 37346 ft 503 kts 134°
2026-04-24 13:27 -30.43205 143.44544 37351 ft 503 kts 134°
2026-04-24 13:27 -30.47553 143.50826 37349 ft 503 kts 134°
2026-04-24 13:28 -30.51927 143.57155 37348 ft 502 kts 134°
2026-04-24 13:28 -30.56292 143.63482 37349 ft 502 kts 134°
2026-04-24 13:29 -30.60653 143.69813 37349 ft 502 kts 134°
2026-04-24 13:29 -30.65009 143.76145 37349 ft 502 kts 134°
2026-04-24 13:30 -30.69361 143.82482 37353 ft 501 kts 134°
2026-04-24 13:30 -30.73705 143.88818 37350 ft 501 kts 134°
2026-04-24 13:31 -30.78047 143.95161 37352 ft 501 kts 133°
2026-04-24 13:31 -30.82379 144.01501 37358 ft 500 kts 133°
2026-04-24 13:32 -30.86680 144.07805 37356 ft 500 kts 133°
2026-04-24 13:32 -30.90992 144.14136 37361 ft 499 kts 133°
2026-04-24 13:33 -30.95314 144.20490 37359 ft 499 kts 133°
2026-04-24 13:33 -30.99620 144.26831 37363 ft 499 kts 133°
2026-04-24 13:34 -31.03910 144.33161 37367 ft 498 kts 133°
2026-04-24 13:34 -31.08211 144.39516 37361 ft 498 kts 133°
2026-04-24 13:35 -31.12502 144.45867 37368 ft 498 kts 133°
2026-04-24 13:35 -31.16788 144.52219 37365 ft 497 kts 133°
2026-04-24 13:36 -31.21065 144.58570 37366 ft 497 kts 133°
2026-04-24 13:36 -31.25337 144.64924 37375 ft 497 kts 133°
2026-04-24 13:37 -31.29600 144.71274 37374 ft 496 kts 133°
2026-04-24 13:37 -31.33830 144.77586 37384 ft 496 kts 133°
2026-04-24 13:38 -31.38083 144.83943 37379 ft 495 kts 133°
2026-04-24 13:38 -31.42332 144.90303 37377 ft 495 kts 132°
2026-04-24 13:39 -31.46563 144.96648 37384 ft 494 kts 132°
2026-04-24 13:39 -31.50798 145.03008 37392 ft 494 kts 132°
2026-04-24 13:40 -31.55018 145.09357 37387 ft 494 kts 132°
2026-04-24 13:40 -31.59238 145.15717 37391 ft 494 kts 132°
2026-04-24 13:41 -31.63450 145.22075 37390 ft 493 kts 132°
2026-04-24 13:41 -31.67658 145.28436 37394 ft 493 kts 132°
2026-04-24 13:42 -31.71856 145.34794 37393 ft 492 kts 132°
2026-04-24 13:42 -31.76049 145.41155 37392 ft 492 kts 131°
2026-04-24 13:43 -31.80240 145.47522 37392 ft 492 kts 131°
2026-04-24 13:43 -31.84423 145.53888 37392 ft 492 kts 131°
2026-04-24 13:44 -31.88599 145.60256 37391 ft 492 kts 131°
2026-04-24 13:44 -31.92775 145.66632 37396 ft 491 kts 131°
2026-04-24 13:45 -31.96942 145.73007 37399 ft 491 kts 131°
2026-04-24 13:45 -32.01079 145.79345 37399 ft 491 kts 131°
2026-04-24 13:46 -32.05236 145.85725 37403 ft 491 kts 131°
2026-04-24 13:46 -32.09392 145.92115 37402 ft 491 kts 131°
2026-04-24 13:47 -32.13545 145.98510 37402 ft 491 kts 131°
2026-04-24 13:47 -32.17693 146.04908 37403 ft 490 kts 131°
2026-04-24 13:48 -32.21834 146.11306 37402 ft 490 kts 131°
2026-04-24 13:48 -32.25973 146.17712 37407 ft 490 kts 130°
2026-04-24 13:49 -32.30100 146.24110 37406 ft 490 kts 130°
2026-04-24 13:49 -32.34221 146.30511 37408 ft 489 kts 130°
2026-04-24 13:50 -32.38339 146.36916 37410 ft 489 kts 130°
2026-04-24 13:50 -32.42453 146.43326 37414 ft 489 kts 130°
2026-04-24 13:51 -32.46562 146.49741 37411 ft 489 kts 130°
2026-04-24 13:51 -32.50660 146.56148 37415 ft 488 kts 130°
2026-04-24 13:52 -32.54757 146.62564 37416 ft 488 kts 130°
2026-04-24 13:52 -32.58845 146.68978 37415 ft 488 kts 130°
2026-04-24 13:53 -32.62902 146.75354 37421 ft 487 kts 130°
2026-04-24 13:53 -32.66982 146.81777 37415 ft 487 kts 130°
2026-04-24 13:54 -32.71054 146.88199 37418 ft 487 kts 130°
2026-04-24 13:54 -32.75123 146.94627 37417 ft 486 kts 130°
2026-04-24 13:55 -32.79186 147.01056 37419 ft 486 kts 130°
2026-04-24 13:55 -32.83239 147.07480 37423 ft 485 kts 130°
2026-04-24 13:56 -32.87282 147.13900 37422 ft 485 kts 130°
2026-04-24 13:56 -32.91319 147.20322 37426 ft 484 kts 129°
2026-04-24 13:57 -32.95352 147.26748 37424 ft 484 kts 129°
2026-04-24 13:57 -32.99382 147.33179 37424 ft 484 kts 129°
2026-04-24 13:58 -33.03375 147.39564 37425 ft 483 kts 129°
2026-04-24 13:58 -33.07411 147.46029 37433 ft 483 kts 129°
2026-04-24 13:59 -33.11393 147.52417 37427 ft 483 kts 129°
2026-04-24 13:59 -33.15391 147.58844 37425 ft 482 kts 129°
2026-04-24 14:00 -33.19391 147.65284 37433 ft 482 kts 129°
2026-04-24 14:00 -33.23380 147.71718 37433 ft 482 kts 129°
2026-04-24 14:01 -33.27367 147.78159 37432 ft 481 kts 129°
2026-04-24 14:01 -33.31341 147.84593 37432 ft 481 kts 129°
2026-04-24 14:02 -33.35315 147.91034 37436 ft 481 kts 129°
2026-04-24 14:02 -33.39153 147.97578 37451 ft 482 kts 122°
2026-04-24 14:03 -33.41981 148.04878 37449 ft 485 kts 116°
2026-04-24 14:03 -33.44672 148.12232 37450 ft 485 kts 117°
2026-04-24 14:04 -33.47407 148.19618 37457 ft 485 kts 117°
2026-04-24 14:04 -33.50160 148.27002 37447 ft 485 kts 117°
2026-04-24 14:05 -33.52909 148.34376 37453 ft 484 kts 117°
2026-04-24 14:05 -33.55204 148.40545 37456 ft 484 kts 117°
2026-04-24 14:06 -33.57923 148.47873 37462 ft 483 kts 117°
2026-04-24 14:06 -33.60654 148.55252 37465 ft 482 kts 117°
2026-04-24 14:07 -33.63368 148.62602 37469 ft 482 kts 117°
2026-04-24 14:07 -33.66077 148.69953 37471 ft 481 kts 117°
2026-04-24 14:08 -33.68773 148.77286 37476 ft 480 kts 117°
2026-04-24 14:08 -33.71449 148.84579 37481 ft 480 kts 117°
2026-04-24 14:09 -33.74137 148.91908 37482 ft 479 kts 117°
2026-04-24 14:09 -33.76817 148.99234 37485 ft 478 kts 117°
2026-04-24 14:10 -33.79459 149.06509 37278 ft 468 kts 117°
2026-04-24 14:10 -33.80749 149.10071 36812 ft 460 kts 117°
2026-04-24 14:10 -33.82032 149.13607 35826 ft 464 kts 117°
2026-04-24 14:11 -33.83331 149.17178 34976 ft 467 kts 117°
2026-04-24 14:11 -33.84630 149.20755 34517 ft 466 kts 117°
2026-04-24 14:11 -33.87181 149.27810 33753 ft 454 kts 117°
2026-04-24 14:12 -33.88431 149.31270 33215 ft 448 kts 117°
2026-04-24 14:12 -33.89664 149.34686 32673 ft 443 kts 117°
2026-04-24 14:12 -33.90886 149.38073 32179 ft 439 kts 117°
2026-04-24 14:12 -33.92097 149.41434 31647 ft 434 kts 117°
2026-04-24 14:13 -33.93279 149.44717 31153 ft 431 kts 116°
2026-04-24 14:13 -33.94466 149.48015 30626 ft 427 kts 116°
2026-04-24 14:13 -33.95640 149.51283 30055 ft 423 kts 116°
2026-04-24 14:13 -33.96803 149.54523 29503 ft 420 kts 116°
2026-04-24 14:14 -33.97956 149.57739 28980 ft 415 kts 116°
2026-04-24 14:14 -33.99094 149.60915 28454 ft 412 kts 116°
2026-04-24 14:14 -34.01343 149.67206 27451 ft 405 kts 115°
2026-04-24 14:15 -34.02454 149.70316 26960 ft 402 kts 115°
2026-04-24 14:15 -34.03557 149.73405 26472 ft 400 kts 115°
2026-04-24 14:15 -34.04652 149.76480 25973 ft 397 kts 115°
2026-04-24 14:15 -34.05740 149.79533 25508 ft 395 kts 115°
2026-04-24 14:16 -34.06823 149.82580 25018 ft 394 kts 114°
2026-04-24 14:16 -34.07899 149.85606 24544 ft 392 kts 114°
2026-04-24 14:16 -34.08976 149.88639 24033 ft 392 kts 114°
2026-04-24 14:17 -34.11093 149.94613 22979 ft 388 kts 114°
2026-04-24 14:17 -34.12150 149.97596 22479 ft 385 kts 114°
2026-04-24 14:17 -34.14240 150.03509 21553 ft 381 kts 114°
2026-04-24 14:18 -34.15276 150.06443 21060 ft 379 kts 114°
2026-04-24 14:18 -34.16306 150.09364 20606 ft 377 kts 113°
2026-04-24 14:18 -34.17330 150.12270 20136 ft 376 kts 113°
2026-04-24 14:18 -34.18353 150.15174 19676 ft 375 kts 113°
2026-04-24 14:19 -34.19369 150.18066 19208 ft 374 kts 113°
2026-04-24 14:19 -34.20385 150.20957 18712 ft 373 kts 113°
2026-04-24 14:19 -34.21397 150.23838 18198 ft 372 kts 113°
2026-04-24 14:19 -34.22406 150.26715 17699 ft 371 kts 113°
2026-04-24 14:20 -34.23408 150.29575 17205 ft 369 kts 113°
2026-04-24 14:20 -34.24408 150.32429 16745 ft 367 kts 113°
2026-04-24 14:20 -34.25399 150.35263 16279 ft 366 kts 113°
2026-04-24 14:20 -34.26387 150.38088 15811 ft 364 kts 112°
2026-04-24 14:21 -34.27227 150.40933 15333 ft 357 kts 100°
2026-04-24 14:21 -34.27250 150.43913 14915 ft 355 kts 81°
2026-04-24 14:21 -34.26526 150.46748 14483 ft 354 kts 65°
2026-04-24 14:21 -34.25369 150.49371 14035 ft 353 kts 61°
2026-04-24 14:22 -34.24171 150.51949 13572 ft 352 kts 61°
2026-04-24 14:22 -34.22973 150.54527 13115 ft 350 kts 61°
2026-04-24 14:22 -34.20636 150.59657 12251 ft 344 kts 62°
2026-04-24 14:23 -34.19657 150.61834 11873 ft 330 kts 62°
2026-04-24 14:23 -34.18580 150.64228 11470 ft 319 kts 62°
2026-04-24 14:23 -34.17504 150.66623 11112 ft 330 kts 62°
2026-04-24 14:23 -34.16405 150.69067 11006 ft 331 kts 62°
2026-04-24 14:24 -34.15307 150.71505 10957 ft 329 kts 62°
2026-04-24 14:24 -34.14228 150.73903 10893 ft 320 kts 62°
2026-04-24 14:24 -34.13097 150.76130 10765 ft 302 kts 52°
2026-04-24 14:24 -34.12005 150.78186 10569 ft 287 kts 70°
2026-04-24 14:25 -34.11728 150.80491 10382 ft 280 kts 96°
2026-04-24 14:25 -34.12329 150.82713 10166 ft 274 kts 117°
2026-04-24 14:25 -34.13295 150.84648 9888 ft 272 kts 121°
2026-04-24 14:25 -34.14338 150.86549 9555 ft 271 kts 122°
2026-04-24 14:26 -34.15391 150.88435 9224 ft 271 kts 122°
2026-04-24 14:26 -34.16446 150.90312 8935 ft 269 kts 122°
2026-04-24 14:26 -34.17492 150.92160 8787 ft 262 kts 122°
2026-04-24 14:26 -34.18503 150.93936 8746 ft 251 kts 122°
2026-04-24 14:27 -34.19479 150.95641 8711 ft 248 kts 123°
2026-04-24 14:27 -34.20493 150.97416 8705 ft 264 kts 123°
2026-04-24 14:27 -34.21551 150.99274 8639 ft 270 kts 123°
2026-04-24 14:27 -34.22624 151.01156 8363 ft 272 kts 123°
2026-04-24 14:28 -34.23658 151.03044 8063 ft 264 kts 115°
2026-04-24 14:28 -34.24170 151.05146 7579 ft 262 kts 96°
2026-04-24 14:28 -34.24367 151.07328 7235 ft 260 kts 94°
2026-04-24 14:28 -34.24515 151.09497 6918 ft 258 kts 93°
2026-04-24 14:29 -34.24657 151.11649 6558 ft 257 kts 93°
2026-04-24 14:29 -34.24794 151.13788 6203 ft 256 kts 93°
2026-04-24 14:29 -34.24928 151.15932 5851 ft 255 kts 93°
2026-04-24 14:29 -34.25056 151.18052 5324 ft 252 kts 93°
2026-04-24 14:30 -34.25122 151.19448 4871 ft 249 kts 87°
2026-04-24 14:30 -34.24365 151.22015 3871 ft 245 kts 47°
2026-04-24 14:30 -34.23043 151.23166 3766 ft 235 kts 25°
2026-04-24 14:30 -34.21399 151.23694 3631 ft 249 kts
2026-04-24 14:31 -34.19672 151.23689 3439 ft 246 kts 359°
2026-04-24 14:31 -34.18120 151.23600 3215 ft 226 kts 356°
2026-04-24 14:31 -34.16636 151.23335 3069 ft 205 kts 350°
2026-04-24 14:31 -34.15300 151.22996 2975 ft 191 kts 349°
2026-04-24 14:32 -34.14038 151.22664 3044 ft 182 kts 349°
2026-04-24 14:32 -34.12847 151.22350 2972 ft 163 kts 349°
2026-04-24 14:32 -34.11830 151.22082 2942 ft 144 kts 349°
2026-04-24 14:32 -34.10818 151.21819 2965 ft 158 kts 349°
2026-04-24 14:33 -34.09733 151.21535 2707 ft 155 kts 349°
2026-04-24 14:33 -34.08719 151.21270 2509 ft 143 kts 349°
2026-04-24 14:33 -34.07743 151.21015 2329 ft 144 kts 349°
2026-04-24 14:33 -34.06758 151.20758 2127 ft 145 kts 349°
2026-04-24 14:34 -34.05773 151.20501 1914 ft 145 kts 348°
2026-04-24 14:34 -34.04788 151.20243 1731 ft 145 kts 348°
2026-04-24 14:34 -34.03805 151.19987 1534 ft 144 kts 347°
2026-04-24 14:34 -34.02824 151.19731 1346 ft 144 kts 348°
2026-04-24 14:35 -34.01847 151.19477 1143 ft 144 kts 348°
2026-04-24 14:35 -34.00872 151.19222 959 ft 143 kts 348°
2026-04-24 14:35 -33.99911 151.18970 766 ft 139 kts 347°
2026-04-24 14:35 -33.98963 151.18717 587 ft 140 kts 347°
2026-04-24 14:36 -33.98039 151.18478 419 ft 135 kts 348°
2026-04-24 14:36 -33.97132 151.18247 215 ft 131 kts 348°
2026-04-24 14:36 -33.96249 151.18018 65 ft 130 kts 348°
2026-04-24 14:36 -33.95443 151.17809 34 ft 104 kts 348°
2026-04-24 14:37 -33.94886 151.17664 34 ft 60 kts 347°
2026-04-24 14:37 -33.94529 151.17571 35 ft 49 kts 349°
2026-04-24 14:37 -33.94217 151.17490 35 ft 43 kts 348°
2026-04-24 14:37 -33.93973 151.17422 31 ft 26 kts 332°
2026-04-24 14:38 -33.93961 151.17268 33 ft 19 kts 255°
2026-04-24 14:38 -33.93998 151.17112 34 ft 19 kts 254°
2026-04-24 14:38 -33.94033 151.16967 35 ft 18 kts 254°
2026-04-24 14:38 -33.94044 151.16826 35 ft 18 kts 307°
2026-04-24 14:39 -33.93941 151.16779 35 ft 11 kts 354°
2026-04-24 14:39 -33.93899 151.16826 35 ft 7 kts 66°
2026-04-24 14:39 -33.93892 151.16855 35 ft 2 kts 75°
2026-04-24 14:39 -33.93890 151.16860 35 ft 0 kts 75°